Tracking 19283 objects as of 17-Nov-2018
HD Live streaming from Space Station
objects crossing your sky now

COSMOS 2131

Track COSMOS 2131 now!
10-day predictions
COSMOS 2131 is classified as:


NORAD ID: 21106
Int'l Code: 1991-009G
Perigee: 1,394.6 km
Apogee: 1,474.6 km
Inclination: 74.0 °
Period: 114.4 minutes
Semi major axis: 7805 km
RCS: 0.6789 m2 (medium)
Launch date: February 12, 1991
Source: Commonwealth of Independent States (former USSR) (CIS)
Launch site: PLESETSK MISSILE AND SPACE COMPLEX (PKMTR)
aabbcc
Your satellite tracking list
Your tracking list is empty




NASA's NSSDC Master Catalog

Two Line Element Set (TLE):
1 21106U 91009G   18320.61920315 -.00000009 +00000-0 +40941-4 0  9992
2 21106 074.0280 172.9684 0051255 080.3963 341.4977 12.58913473275717
Source of the keplerian elements: AFSPC